Home   Weather   Petersburg   Past weeks

Flag for USA Past Weather in Petersburg, Indiana, USA — Yesterday and Last 2 Weeks

46 °F


Feels Like: 44 °F
Forecast: 46 / 72 °F
Wind: 5 mph from South

Location: Huntingburg Airport

Current Time: Oct 23, 2016 at 4:04:51 AM

Latest Report: Oct 23, 2016 at 3:35 AM

Visibility: 10 mi

Pressure: 30.14 "Hg

Humidity: 71%

Dew Point: 37 °F

Location of PetersburgLocation

Past Weather in Petersburg — Graph


Petersburg Temperature Yesterday

Maximum temperature yesterday: 73 °F (at 3:15 PM)
Minimum temperature yesterday: 37 °F (at 7:15 AM)
Average temperature yesterday: 53 °F

High & Low Weather Summary for the Past Weeks

High84 °F (Oct 17, 1:55 PM)100% (Oct 22, 7:35 AM)30.40 "Hg (Oct 22, 7:35 AM)
Low37 °F (Oct 22, 7:15 AM)31% (Oct 8, 3:55 PM)29.79 "Hg (Oct 17, 5:15 PM)
Average63 °F68%30.12 "Hg
* Reported Oct 8 2:15 AM — Oct 23 2:55 AM, Petersburg, Weather by CustomWeather, © 2016

Note: Actual official high and low records may vary slightly from our data, if they occured in-between our weather recording intervals... More about our weather records


Petersburg Weather History for the Previous 24 Hours

Scroll right to see more
Time TempWeatherWind HumidityBarometerVisibility
2:55 AM
Sun, Oct 23
46 °FCool.5 mph71%30.14 "Hg10 mi
2:35 AM45 °FQuite cool.3 mph71%30.13 "Hg10 mi
2:15 AM46 °FCool.3 mph71%30.13 "Hg10 mi
1:55 AM46 °FCool.No wind71%30.13 "Hg10 mi
1:35 AM45 °FQuite cool.3 mph71%30.13 "Hg10 mi
1:15 AM45 °FQuite cool.5 mph71%30.12 "Hg10 mi
12:55 AM45 °FQuite cool.3 mph71%30.13 "Hg10 mi
12:35 AM45 °FQuite cool.No wind71%30.12 "Hg10 mi
11:55 PM
Sat, Oct 22
45 °FQuite cool.No wind66%30.12 "Hg10 mi
11:35 PM45 °FQuite cool.5 mph66%30.11 "Hg10 mi
11:15 PM45 °FQuite cool.3 mph71%30.12 "Hg10 mi
10:55 PM45 °FQuite cool.3 mph71%30.12 "Hg10 mi
10:35 PM45 °FQuite cool.3 mph66%30.11 "Hg10 mi
10:15 PM45 °FQuite cool.5 mph66%30.11 "Hg10 mi
9:55 PM45 °FQuite cool.3 mph61%30.12 "Hg10 mi
9:35 PM46 °FCool.3 mph57%30.12 "Hg10 mi
9:15 PM46 °FCool.5 mph62%30.12 "Hg10 mi
8:55 PM46 °FCool.3 mph57%30.12 "Hg10 mi
8:35 PM48 °FCool.3 mph50%30.13 "Hg10 mi
8:15 PM50 °FCool.3 mph47%30.13 "Hg10 mi
7:55 PM52 °FCool.No wind44%30.13 "Hg10 mi
7:35 PM55 °FRefreshingly cool.No wind41%30.12 "Hg5 mi
7:15 PM61 °FRefreshingly cool.5 mph39%30.12 "Hg10 mi
6:55 PM64 °FMild.5 mph37%30.11 "Hg10 mi
6:35 PM68 °FMild.6 mph35%30.11 "Hg10 mi
6:15 PM70 °FMild.5 mph35%30.11 "Hg10 mi
5:55 PM72 °FMild.7 mph36%30.11 "Hg10 mi
5:35 PM72 °FMild.8 mph38%30.11 "Hg10 mi
5:15 PM72 °FMild.7 mph38%30.11 "Hg10 mi
4:55 PM73 °FMild.7 mph36%30.12 "Hg10 mi
4:35 PM72 °FMild.7 mph38%30.11 "Hg10 mi
4:15 PM72 °FMild.6 mph38%30.11 "Hg10 mi
3:55 PM73 °FMild.8 mph38%30.11 "Hg10 mi
3:35 PM73 °FMild.7 mph36%30.12 "Hg10 mi
3:15 PM73 °FMild.7 mph41%30.13 "Hg10 mi
2:55 PM72 °FMild.5 mph50%30.14 "Hg10 mi
2:35 PM68 °FMild.No wind53%30.15 "Hg10 mi
2:15 PM70 °FMild.6 mph53%30.16 "Hg10 mi
1:55 PM66 °FMild.3 mph60%30.17 "Hg10 mi
1:35 PM68 °FMild.5 mph60%30.18 "Hg10 mi
1:15 PM64 °FMild.7 mph64%30.18 "Hg10 mi
12:55 PM64 °FMild.5 mph64%30.19 "Hg10 mi
12:35 PM64 °FMild.6 mph68%30.19 "Hg10 mi
12:15 PM61 °FCool.No wind72%30.19 "Hg10 mi
11:55 AM61 °FCool.7 mph72%30.18 "Hg10 mi
11:35 AM57 °FCool.7 mph82%30.19 "Hg10 mi
11:15 AM57 °FCool.7 mph82%30.19 "Hg10 mi
10:55 AM55 °FCool.7 mph88%30.20 "Hg10 mi
10:35 AM54 °FCool.6 mph94%30.20 "Hg10 mi
10:15 AM54 °FCool.6 mph94%30.20 "Hg10 mi
9:55 AM52 °FCool.3 mph94%30.19 "Hg10 mi
9:35 AM48 °FCool.3 mph94%30.18 "Hg10 mi
8:55 AM43 °FQuite cool.5 mph100%30.17 "Hg10 mi
8:35 AM39 °FChilly.5 mph93%30.16 "Hg7 mi
8:15 AM37 °FChilly.3 mph100%30.16 "Hg8 mi
7:55 AM39 °FChilly.3 mph100%30.15 "Hg10 mi
7:35 AM37 °FChilly.3 mph100%30.15 "Hg10 mi
7:15 AM37 °FChilly.3 mph87%30.15 "Hg10 mi
6:55 AM39 °FChilly.5 mph81%30.15 "Hg10 mi
6:35 AM39 °FChilly.3 mph87%30.14 "Hg10 mi
6:15 AM39 °FChilly.No wind87%30.14 "Hg10 mi
5:55 AM41 °FQuite cool.3 mph81%30.14 "Hg10 mi
5:35 AM41 °FQuite cool.5 mph81%30.14 "Hg10 mi
5:15 AM41 °FQuite cool.5 mph81%30.13 "Hg10 mi
4:55 AM41 °FQuite cool.5 mph81%30.13 "Hg10 mi
4:35 AM41 °FQuite cool.3 mph81%30.13 "Hg10 mi
4:15 AM43 °FQuite cool.3 mph76%30.13 "Hg10 mi
Weather by CustomWeather, © 2016

See weather overviewHow to use our weather pages